N207BZ KLGA-EGWU

Flight info

Callsign N207BZ
Flight time N/A
Altitude 39000
Route MERIT DCT HFD DCT PUT DCT BOS DCT ALLEX N263A JOOPY/M082F410 DCT 49N050W 51N040W 52N030W 53N020W DCT MALOT/N0472F410 DCT GISTI DCT LEDGO DCT FONZU DCT ELRIP DCT OTMET
Aircraft CL35/M-SDFGIRW/S

Departure

Time 2026-05-06 04:14
Airport LaGuardia Airport (KLGA)

Arrival

Time N/A
Airport RAF Northolt (EGWU)
Time Latitude Longitude Altitude Speed Heading
2026-05-06 03:42 40.77674 -73.88178 14 ft 0 kts
2026-05-06 04:05 40.77672 -73.88179 14 ft 2 kts
2026-05-06 04:05 40.77647 -73.88185 14 ft 4 kts 20°
2026-05-06 04:05 40.77626 -73.88204 16 ft 4 kts 71°
2026-05-06 04:06 40.77624 -73.88219 15 ft 1 kts 88°
2026-05-06 04:06 40.77624 -73.88220 15 ft 0 kts 88°
2026-05-06 04:09 40.77625 -73.88204 15 ft 5 kts 89°
2026-05-06 04:09 40.77625 -73.88132 15 ft 10 kts 90°
2026-05-06 04:09 40.77653 -73.88052 15 ft 11 kts 34°
2026-05-06 04:10 40.77727 -73.87993 15 ft 13 kts 32°
2026-05-06 04:10 40.77807 -73.87925 14 ft 14 kts 32°
2026-05-06 04:10 40.77891 -73.87857 14 ft 13 kts 32°
2026-05-06 04:10 40.77956 -73.87803 13 ft 11 kts 31°
2026-05-06 04:11 40.78026 -73.87746 11 ft 12 kts 32°
2026-05-06 04:11 40.78076 -73.87758 11 ft 7 kts 295°
2026-05-06 04:11 40.78104 -73.87822 12 ft 9 kts 303°
2026-05-06 04:11 40.78149 -73.87859 13 ft 7 kts 349°
2026-05-06 04:12 40.78198 -73.87856 13 ft 7 kts 34°
2026-05-06 04:12 40.78196 -73.87792 12 ft 9 kts 123°
2026-05-06 04:12 40.78174 -73.87746 11 ft 1 kts 121°
2026-05-06 04:13 40.78134 -73.87658 11 ft 26 kts 123°
2026-05-06 04:13 40.77925 -73.87213 9 ft 90 kts 121°
2026-05-06 04:14 40.77457 -73.86323 9 ft 143 kts 124°
2026-05-06 04:14 40.76884 -73.85091 382 ft 160 kts 125°
2026-05-06 04:14 40.76339 -73.83791 928 ft 171 kts 126°
2026-05-06 04:14 40.75797 -73.82313 1490 ft 185 kts 127°
2026-05-06 04:15 40.75380 -73.80634 2038 ft 208 kts 111°
2026-05-06 04:15 40.75361 -73.78623 2524 ft 228 kts 90°
2026-05-06 04:15 40.75732 -73.76559 3120 ft 237 kts 75°
2026-05-06 04:15 40.76485 -73.74559 3582 ft 249 kts 56°
2026-05-06 04:16 40.77611 -73.72850 4320 ft 240 kts 40°
2026-05-06 04:16 40.78903 -73.71514 5026 ft 233 kts 27°
2026-05-06 04:16 40.80346 -73.70736 5687 ft 220 kts
2026-05-06 04:16 40.81845 -73.70675 6278 ft 214 kts 349°
2026-05-06 04:17 40.83340 -73.70792 6778 ft 216 kts 348°
2026-05-06 04:17 40.84828 -73.70955 7383 ft 213 kts 346°
2026-05-06 04:17 40.86288 -73.71191 7985 ft 210 kts 345°
2026-05-06 04:17 40.87761 -73.71070 8568 ft 218 kts 13°
2026-05-06 04:18 40.89099 -73.70148 9187 ft 225 kts 35°
2026-05-06 04:18 40.90267 -73.68693 9871 ft 232 kts 48°
2026-05-06 04:18 40.91319 -73.66995 10447 ft 249 kts 51°
2026-05-06 04:18 40.92455 -73.65126 11092 ft 271 kts 51°
2026-05-06 04:19 40.93656 -73.63144 11758 ft 291 kts 50°
2026-05-06 04:19 40.95102 -73.61076 12454 ft 311 kts 44°
2026-05-06 04:19 40.96683 -73.59076 13127 ft 330 kts 42°
2026-05-06 04:19 40.98421 -73.56940 13815 ft 350 kts 40°
2026-05-06 04:20 41.00360 -73.54845 14439 ft 369 kts 36°
2026-05-06 04:20 41.02450 -73.52738 15064 ft 386 kts 35°
2026-05-06 04:20 41.04642 -73.50556 15690 ft 401 kts 35°
2026-05-06 04:20 41.06843 -73.48300 16321 ft 399 kts 37°
2026-05-06 04:21 41.08972 -73.45941 16966 ft 396 kts 38°
2026-05-06 04:21 41.11049 -73.43568 17613 ft 393 kts 39°
2026-05-06 04:21 41.13083 -73.41215 18266 ft 390 kts 39°
2026-05-06 04:21 41.15124 -73.38833 18852 ft 387 kts 39°
2026-05-06 04:22 41.17150 -73.36456 19452 ft 391 kts 39°
2026-05-06 04:22 41.19212 -73.34032 20053 ft 401 kts 39°
2026-05-06 04:22 41.21320 -73.31553 20680 ft 410 kts 39°
2026-05-06 04:23 41.25648 -73.26447 22178 ft 420 kts 39°
2026-05-06 04:23 41.27843 -73.23848 22982 ft 424 kts 39°
2026-05-06 04:23 41.30055 -73.21221 23751 ft 429 kts 39°
2026-05-06 04:23 41.32293 -73.18556 24454 ft 435 kts 39°
2026-05-06 04:24 41.34556 -73.15856 25173 ft 440 kts 39°
2026-05-06 04:24 41.36847 -73.13115 25909 ft 444 kts 39°
2026-05-06 04:24 41.39118 -73.10301 26646 ft 451 kts 44°
2026-05-06 04:24 41.41024 -73.06948 27419 ft 457 kts 55°
2026-05-06 04:25 41.42663 -73.03303 28217 ft 461 kts 59°
2026-05-06 04:25 41.44220 -72.99554 29037 ft 463 kts 60°
2026-05-06 04:25 41.45769 -72.95781 29874 ft 466 kts 60°
2026-05-06 04:25 41.47324 -72.91986 30627 ft 467 kts 59°
2026-05-06 04:26 41.48951 -72.88217 31369 ft 468 kts 55°
2026-05-06 04:26 41.50792 -72.84650 32130 ft 468 kts 52°
2026-05-06 04:26 41.52688 -72.81101 32917 ft 469 kts 53°
2026-05-06 04:26 41.54383 -72.77431 33720 ft 472 kts 59°
2026-05-06 04:27 41.55943 -72.73508 34474 ft 473 kts 60°
2026-05-06 04:27 41.57506 -72.69656 35190 ft 472 kts 57°
2026-05-06 04:27 41.59187 -72.65977 35898 ft 470 kts 54°
2026-05-06 04:27 41.60904 -72.62258 36669 ft 470 kts 56°
2026-05-06 04:28 41.62521 -72.58464 37465 ft 469 kts 57°
2026-05-06 04:28 41.64108 -72.54659 38283 ft 467 kts 56°
2026-05-06 04:28 41.65760 -72.50948 38884 ft 466 kts 53°
2026-05-06 04:29 41.69202 -72.43566 38912 ft 467 kts 55°
2026-05-06 04:29 41.72480 -72.36112 38932 ft 463 kts 54°
2026-05-06 04:30 41.75822 -72.28780 38935 ft 460 kts 54°
2026-05-06 04:30 41.79092 -72.21404 38938 ft 461 kts 55°
2026-05-06 04:31 41.81303 -72.16486 38948 ft 461 kts 54°
2026-05-06 04:31 41.83737 -72.11042 38951 ft 462 kts 55°
2026-05-06 04:32 41.87026 -72.03629 38948 ft 463 kts 55°
2026-05-06 04:32 41.90329 -71.96209 38950 ft 464 kts 55°
2026-05-06 04:33 41.93622 -71.88761 38946 ft 464 kts 55°
2026-05-06 04:33 41.96995 -71.81352 38955 ft 464 kts 53°
2026-05-06 04:34 42.00488 -71.74058 38953 ft 464 kts 53°
2026-05-06 04:34 42.03955 -71.66725 38958 ft 465 kts 53°
2026-05-06 04:35 42.06850 -71.60637 38957 ft 465 kts 53°
2026-05-06 04:35 42.10274 -71.53383 38954 ft 465 kts 54°
2026-05-06 04:36 42.13745 -71.46031 38951 ft 465 kts 54°
2026-05-06 04:36 42.17155 -71.38779 38942 ft 465 kts 54°
2026-05-06 04:37 42.20513 -71.31626 38940 ft 466 kts 54°
2026-05-06 04:37 42.23896 -71.24400 38945 ft 466 kts 54°
2026-05-06 04:38 42.27350 -71.17008 38937 ft 466 kts 54°
2026-05-06 04:38 42.30798 -71.09607 38927 ft 466 kts 54°
2026-05-06 04:39 42.34247 -71.02188 38921 ft 466 kts 55°
2026-05-06 04:39 42.37902 -70.95067 38924 ft 463 kts 49°
2026-05-06 04:40 42.41744 -70.88056 38921 ft 464 kts 50°
2026-05-06 04:40 42.45598 -70.81046 38916 ft 464 kts 50°
2026-05-06 04:41 42.49440 -70.74032 38913 ft 464 kts 50°
2026-05-06 04:41 42.53286 -70.66989 38914 ft 464 kts 50°
2026-05-06 04:42 42.57132 -70.59939 38912 ft 465 kts 50°
2026-05-06 04:42 42.60971 -70.52876 38916 ft 465 kts 50°
2026-05-06 04:43 42.64809 -70.45807 38913 ft 465 kts 51°
2026-05-06 04:43 42.68642 -70.38721 38925 ft 465 kts 51°
2026-05-06 04:44 42.72478 -70.31622 38925 ft 466 kts 51°
2026-05-06 04:44 42.76303 -70.24519 38926 ft 466 kts 51°
2026-05-06 04:45 42.80133 -70.17394 38922 ft 466 kts 51°
2026-05-06 04:45 42.83960 -70.10256 38930 ft 466 kts 51°
2026-05-06 04:46 42.87776 -70.03122 38928 ft 466 kts 51°
2026-05-06 04:46 42.91594 -69.95967 38938 ft 466 kts 51°
2026-05-06 04:47 42.95407 -69.88802 38930 ft 467 kts 51°
2026-05-06 04:47 42.99218 -69.81626 38937 ft 466 kts 51°
2026-05-06 04:48 43.02996 -69.74495 38938 ft 467 kts 51°
2026-05-06 04:48 43.06794 -69.67308 38939 ft 466 kts 51°
2026-05-06 04:49 43.10592 -69.60106 38939 ft 466 kts 51°
2026-05-06 04:49 43.14376 -69.52909 38636 ft 465 kts 52°
2026-05-06 04:49 43.16258 -69.49325 38764 ft 461 kts 52°
2026-05-06 04:50 43.18121 -69.45769 38874 ft 459 kts 52°
2026-05-06 04:50 43.21838 -69.38671 38923 ft 459 kts 52°
2026-05-06 04:51 43.25556 -69.31549 38924 ft 460 kts 52°
2026-05-06 04:51 43.29282 -69.24397 38925 ft 461 kts 52°
2026-05-06 04:52 43.33005 -69.17229 38931 ft 462 kts 52°
2026-05-06 04:52 43.36740 -69.10027 38936 ft 463 kts 52°
2026-05-06 04:53 43.40470 -69.02811 38936 ft 464 kts 52°
2026-05-06 04:53 43.44207 -68.95568 38936 ft 465 kts 52°
2026-05-06 04:54 43.47947 -68.88299 38941 ft 465 kts 53°
2026-05-06 04:54 43.51686 -68.81015 38938 ft 466 kts 53°
2026-05-06 04:55 43.55425 -68.73713 38938 ft 467 kts 53°
2026-05-06 04:55 43.59146 -68.66427 38940 ft 468 kts 53°
2026-05-06 04:56 43.62892 -68.59072 38941 ft 469 kts 53°
2026-05-06 04:56 43.66640 -68.51699 38941 ft 469 kts 53°
2026-05-06 04:57 43.70388 -68.44303 38944 ft 470 kts 53°
2026-05-06 04:57 43.74140 -68.36885 38944 ft 471 kts 53°
2026-05-06 04:58 43.77891 -68.29448 38941 ft 472 kts 53°
2026-05-06 04:58 43.81645 -68.21985 38944 ft 473 kts 53°
2026-05-06 04:59 43.85400 -68.14502 38947 ft 473 kts 53°
2026-05-06 04:59 43.89152 -68.07004 38949 ft 474 kts 54°
2026-05-06 05:00 43.92913 -67.99472 38951 ft 475 kts 54°
2026-05-06 05:00 43.96666 -67.91934 38946 ft 476 kts 54°
2026-05-06 05:01 44.00427 -67.84363 38949 ft 476 kts 54°
2026-05-06 05:01 44.04185 -67.76775 38954 ft 477 kts 54°
2026-05-06 05:02 44.07942 -67.69171 38957 ft 478 kts 54°
2026-05-06 05:02 44.11677 -67.61591 38951 ft 478 kts 54°
2026-05-06 05:03 44.15461 -67.53893 38956 ft 479 kts 54°
2026-05-06 05:03 44.19221 -67.46221 38950 ft 480 kts 54°
2026-05-06 05:04 44.22980 -67.38534 38950 ft 480 kts 54°
2026-05-06 05:04 44.26714 -67.30874 38952 ft 481 kts 54°
2026-05-06 05:05 44.30471 -67.23150 38954 ft 481 kts 54°
2026-05-06 05:05 44.34230 -67.15398 38955 ft 482 kts 54°
2026-05-06 05:06 44.37987 -67.07634 38962 ft 482 kts 54°
2026-05-06 05:06 44.41698 -66.99818 38959 ft 483 kts 58°
2026-05-06 05:07 44.44748 -66.91422 38961 ft 484 kts 62°
2026-05-06 05:07 44.47816 -66.83036 38959 ft 485 kts 62°
2026-05-06 05:08 44.50825 -66.74583 38956 ft 485 kts 62°
2026-05-06 05:08 44.53871 -66.66140 38969 ft 485 kts 62°
2026-05-06 05:09 44.56884 -66.57673 38966 ft 486 kts 62°
2026-05-06 05:09 44.59910 -66.49203 38964 ft 486 kts 62°
2026-05-06 05:10 44.62918 -66.40719 38970 ft 486 kts 63°
2026-05-06 05:10 44.65930 -66.32221 38976 ft 486 kts 63°
2026-05-06 05:11 44.68928 -66.23720 38973 ft 486 kts 63°
2026-05-06 05:11 44.71900 -66.15276 38978 ft 485 kts 63°
2026-05-06 05:12 44.74878 -66.06785 38982 ft 483 kts 63°
2026-05-06 05:12 44.77840 -65.98311 38981 ft 482 kts 63°
2026-05-06 05:13 44.80792 -65.89843 38978 ft 481 kts 63°
2026-05-06 05:13 44.83731 -65.81383 38980 ft 480 kts 63°
2026-05-06 05:14 44.86655 -65.72940 38977 ft 480 kts 63°
2026-05-06 05:14 44.89575 -65.64482 38981 ft 479 kts 63°
2026-05-06 05:15 44.92483 -65.56033 38981 ft 478 kts 63°
2026-05-06 05:15 44.95380 -65.47590 38980 ft 478 kts 63°
2026-05-06 05:16 44.98272 -65.39132 38984 ft 478 kts 63°
2026-05-06 05:16 45.01151 -65.30688 38984 ft 477 kts 63°
2026-05-06 05:17 45.04027 -65.22226 38987 ft 477 kts 63°
2026-05-06 05:17 45.06892 -65.13768 38989 ft 477 kts 63°
2026-05-06 05:18 45.09752 -65.05301 38988 ft 477 kts 64°
2026-05-06 05:18 45.12604 -64.96827 38988 ft 477 kts 64°
2026-05-06 05:19 45.15448 -64.88348 38986 ft 477 kts 64°
2026-05-06 05:19 45.18268 -64.79921 38984 ft 476 kts 64°
2026-05-06 05:20 45.21116 -64.71375 38985 ft 476 kts 64°
2026-05-06 05:20 45.23924 -64.62927 38985 ft 476 kts 64°
2026-05-06 05:21 45.26741 -64.54423 38982 ft 476 kts 64°
2026-05-06 05:21 45.29553 -64.45907 38982 ft 476 kts 64°
2026-05-06 05:22 45.32357 -64.37386 38976 ft 476 kts 64°
2026-05-06 05:22 45.35157 -64.28853 38978 ft 476 kts 64°
2026-05-06 05:23 45.37948 -64.20315 38982 ft 476 kts 64°
2026-05-06 05:23 45.42126 -64.07486 38982 ft 476 kts 64°
2026-05-06 05:24 45.44903 -63.98921 38986 ft 476 kts 64°
2026-05-06 05:24 45.47674 -63.90349 38991 ft 477 kts 65°
2026-05-06 05:25 45.50440 -63.81763 38992 ft 477 kts 65°
2026-05-06 05:25 45.52735 -63.74619 38991 ft 477 kts 65°
2026-05-06 05:26 45.55488 -63.66020 38997 ft 477 kts 65°
2026-05-06 05:26 45.58239 -63.57403 38997 ft 477 kts 65°
2026-05-06 05:27 45.60981 -63.48781 38999 ft 477 kts 65°
2026-05-06 05:27 45.63715 -63.40160 38998 ft 477 kts 65°
2026-05-06 05:28 45.66444 -63.31523 38994 ft 477 kts 65°
2026-05-06 05:28 45.69165 -63.22882 38989 ft 477 kts 65°
2026-05-06 05:29 45.71880 -63.14228 38987 ft 477 kts 65°
2026-05-06 05:29 45.74591 -63.05564 38979 ft 477 kts 65°
2026-05-06 05:30 45.77293 -62.96895 38981 ft 477 kts 65°
2026-05-06 05:30 45.79991 -62.88212 38975 ft 477 kts 65°
2026-05-06 05:31 45.82681 -62.79524 38973 ft 477 kts 65°
2026-05-06 05:31 45.85366 -62.70820 38971 ft 477 kts 65°
2026-05-06 05:32 45.88025 -62.62176 38969 ft 477 kts 65°
2026-05-06 05:32 45.90695 -62.53463 38968 ft 477 kts 66°
2026-05-06 05:33 45.93358 -62.44743 38974 ft 477 kts 66°
2026-05-06 05:33 45.96011 -62.36026 38977 ft 477 kts 66°
2026-05-06 05:34 45.98660 -62.27291 38979 ft 477 kts 66°
2026-05-06 05:34 46.01304 -62.18544 38985 ft 477 kts 66°
2026-05-06 05:35 46.03938 -62.09797 38982 ft 477 kts 66°
2026-05-06 05:35 46.06566 -62.01043 38992 ft 477 kts 66°
2026-05-06 05:36 46.09190 -61.92269 38991 ft 477 kts 66°
2026-05-06 05:36 46.11803 -61.83502 38990 ft 477 kts 66°
2026-05-06 05:37 46.14413 -61.74716 38993 ft 477 kts 66°
2026-05-06 05:37 46.17016 -61.65921 38990 ft 477 kts 66°
2026-05-06 05:38 46.19609 -61.57126 38991 ft 477 kts 66°
2026-05-06 05:38 46.22203 -61.48299 38988 ft 477 kts 66°
2026-05-06 05:39 46.24785 -61.39484 38986 ft 477 kts 67°
2026-05-06 05:39 46.27359 -61.30661 38979 ft 477 kts 67°
2026-05-06 05:40 46.29927 -61.21825 38978 ft 477 kts 67°
2026-05-06 05:40 46.32492 -61.12976 38980 ft 477 kts 67°
2026-05-06 05:41 46.35043 -61.04133 38982 ft 477 kts 67°
2026-05-06 05:41 46.37592 -60.95274 38987 ft 477 kts 67°
2026-05-06 05:42 46.40132 -60.86406 38986 ft 477 kts 67°
2026-05-06 05:42 46.42667 -60.77534 38992 ft 477 kts 67°
2026-05-06 05:43 46.45193 -60.68647 38988 ft 477 kts 67°
2026-05-06 05:43 46.47718 -60.59745 38991 ft 477 kts 67°
2026-05-06 05:44 46.50230 -60.50847 38995 ft 477 kts 68°
2026-05-06 05:44 46.52742 -60.41919 38993 ft 478 kts 68°
2026-05-06 05:45 46.55232 -60.33038 38994 ft 478 kts 68°
2026-05-06 05:45 46.57749 -60.24024 39005 ft 478 kts 68°
2026-05-06 05:46 46.60229 -60.15114 38999 ft 479 kts 68°
2026-05-06 05:46 46.62718 -60.06132 39002 ft 479 kts 68°
2026-05-06 05:47 46.65202 -59.97141 39008 ft 479 kts 68°
2026-05-06 05:47 46.67681 -59.88132 39013 ft 479 kts 68°
2026-05-06 05:48 46.70154 -59.79112 39013 ft 480 kts 68°
2026-05-06 05:48 46.72619 -59.70085 39012 ft 480 kts 68°
2026-05-06 05:49 46.75077 -59.61048 39020 ft 480 kts 68°
2026-05-06 05:49 46.77531 -59.51993 39019 ft 480 kts 68°
2026-05-06 05:50 46.79974 -59.42944 39019 ft 480 kts 68°
2026-05-06 05:50 46.82413 -59.33875 39022 ft 480 kts 68°
2026-05-06 05:51 46.84842 -59.24808 39029 ft 480 kts 68°
2026-05-06 05:51 46.87265 -59.15728 39030 ft 479 kts 68°
2026-05-06 05:52 46.89681 -59.06642 39038 ft 479 kts 68°
2026-05-06 05:52 46.92089 -58.97548 39043 ft 479 kts 68°
2026-05-06 05:53 46.94488 -58.88452 39044 ft 479 kts 68°
2026-05-06 05:53 46.96867 -58.79400 39049 ft 479 kts 68°
2026-05-06 05:54 46.99250 -58.70294 39052 ft 479 kts 68°
2026-05-06 05:54 47.01628 -58.61175 39053 ft 479 kts 68°
2026-05-06 05:55 47.03997 -58.52049 39058 ft 479 kts 68°
2026-05-06 05:55 47.06358 -58.42925 39063 ft 479 kts 68°
2026-05-06 05:56 47.08711 -58.33790 39068 ft 478 kts 68°
2026-05-06 05:56 47.11056 -58.24654 39070 ft 478 kts 68°
2026-05-06 05:57 47.13392 -58.15513 39074 ft 478 kts 68°
2026-05-06 05:57 47.15719 -58.06373 39081 ft 478 kts 68°
2026-05-06 05:58 47.18039 -57.97224 39082 ft 477 kts 68°
2026-05-06 05:58 47.20349 -57.88076 39089 ft 477 kts 68°
2026-05-06 05:59 47.22652 -57.78921 39095 ft 477 kts 68°
2026-05-06 05:59 47.24947 -57.69758 39100 ft 477 kts 69°
2026-05-06 06:00 47.27235 -57.60591 39104 ft 477 kts 69°
2026-05-06 06:00 47.29514 -57.51416 39113 ft 477 kts 69°
2026-05-06 06:01 47.31787 -57.42235 39117 ft 477 kts 69°
2026-05-06 06:01 47.34050 -57.33050 39124 ft 477 kts 69°
2026-05-06 06:02 47.36306 -57.23859 39126 ft 477 kts 69°
2026-05-06 06:02 47.38541 -57.14717 39134 ft 477 kts 69°
2026-05-06 06:03 47.40781 -57.05511 39132 ft 477 kts 69°
2026-05-06 06:03 47.43017 -56.96293 39126 ft 477 kts 69°
2026-05-06 06:04 47.45245 -56.87067 39123 ft 477 kts 69°
2026-05-06 06:04 47.47463 -56.77836 39123 ft 477 kts 69°
2026-05-06 06:05 47.49678 -56.68588 39117 ft 477 kts 69°
2026-05-06 06:05 47.51882 -56.59340 39109 ft 477 kts 69°
2026-05-06 06:06 47.54082 -56.50079 39104 ft 477 kts 69°
2026-05-06 06:06 47.56271 -56.40813 39096 ft 477 kts 69°
2026-05-06 06:07 47.58457 -56.31534 39089 ft 477 kts 69°
2026-05-06 06:07 47.60631 -56.22251 39080 ft 477 kts 69°
2026-05-06 06:08 47.62800 -56.12965 39076 ft 477 kts 69°
2026-05-06 06:08 47.64960 -56.03666 39069 ft 477 kts 69°
2026-05-06 06:09 47.67115 -55.94358 39075 ft 477 kts 69°
2026-05-06 06:09 47.69261 -55.85040 39069 ft 477 kts 69°
2026-05-06 06:10 47.71400 -55.75716 39075 ft 477 kts 69°
2026-05-06 06:10 47.73534 -55.66375 39079 ft 477 kts 69°
2026-05-06 06:11 47.75645 -55.57087 39081 ft 478 kts 69°
2026-05-06 06:11 47.77765 -55.47729 39090 ft 478 kts 69°
2026-05-06 06:12 47.79876 -55.38359 39096 ft 478 kts 69°
2026-05-06 06:12 47.81983 -55.28972 39109 ft 478 kts 70°
2026-05-06 06:13 47.84081 -55.19581 39121 ft 478 kts 70°
2026-05-06 06:13 47.86172 -55.10181 39134 ft 478 kts 70°
2026-05-06 06:14 47.87906 -55.02350 39140 ft 478 kts 70°
2026-05-06 06:14 47.89999 -54.92868 39152 ft 478 kts 70°
2026-05-06 06:15 47.92053 -54.83511 39162 ft 478 kts 70°
2026-05-06 06:15 47.94113 -54.74091 39163 ft 478 kts 70°
2026-05-06 06:16 47.96166 -54.64654 39165 ft 478 kts 70°
2026-05-06 06:16 47.98210 -54.55220 39156 ft 478 kts 70°
2026-05-06 06:17 48.00243 -54.45791 39159 ft 477 kts 70°
2026-05-06 06:17 48.02267 -54.36361 39155 ft 477 kts 70°
2026-05-06 06:18 48.04284 -54.26922 39151 ft 477 kts 70°
2026-05-06 06:18 48.06292 -54.17483 39144 ft 476 kts 70°
2026-05-06 06:19 48.08291 -54.08043 39144 ft 476 kts 70°
2026-05-06 06:19 48.10280 -53.98597 39144 ft 476 kts 70°
2026-05-06 06:20 48.12259 -53.89165 39143 ft 475 kts 70°
2026-05-06 06:20 48.14232 -53.79713 39144 ft 475 kts 70°
2026-05-06 06:21 48.16195 -53.70263 39141 ft 475 kts 70°
2026-05-06 06:21 48.18149 -53.60815 39139 ft 474 kts 70°
2026-05-06 06:22 48.20081 -53.51433 39138 ft 474 kts 70°
2026-05-06 06:22 48.22016 -53.41982 39143 ft 474 kts 70°
2026-05-06 06:23 48.23942 -53.32537 39144 ft 474 kts 70°
2026-05-06 06:23 48.25859 -53.23088 39144 ft 473 kts 70°
2026-05-06 06:24 48.27767 -53.13641 39137 ft 473 kts 70°
2026-05-06 06:24 48.29665 -53.04194 39135 ft 472 kts 70°
2026-05-06 06:25 48.31553 -52.94754 39135 ft 472 kts 70°
2026-05-06 06:26 48.34369 -52.80592 39143 ft 471 kts 70°
2026-05-06 06:26 48.36233 -52.71159 39134 ft 471 kts 70°
2026-05-06 06:27 48.38088 -52.61722 39136 ft 470 kts 70°
2026-05-06 06:27 48.39932 -52.52297 39136 ft 470 kts 70°
2026-05-06 06:28 48.41768 -52.42870 39142 ft 469 kts 71°
2026-05-06 06:28 48.43595 -52.33440 39144 ft 469 kts 71°
2026-05-06 06:29 48.45410 -52.24030 39147 ft 468 kts 71°
2026-05-06 06:29 48.47217 -52.14607 39136 ft 468 kts 71°
2026-05-06 06:30 48.49013 -52.05200 39138 ft 467 kts 71°
2026-05-06 06:30 48.51218 -51.96054 39133 ft 462 kts 60°
2026-05-06 06:31 48.53934 -51.87283 39139 ft 462 kts 61°
2026-05-06 06:31 48.56612 -51.78537 39139 ft 461 kts 60°
2026-05-06 06:32 48.59312 -51.69761 39134 ft 461 kts 61°
2026-05-06 06:32 48.61992 -51.60955 39135 ft 461 kts 61°
2026-05-06 06:33 48.64677 -51.52151 39134 ft 461 kts 61°
2026-05-06 06:33 48.67344 -51.43335 39135 ft 461 kts 61°
2026-05-06 06:34 48.70011 -51.34517 39135 ft 461 kts 61°
2026-05-06 06:34 48.72669 -51.25677 39133 ft 461 kts 61°
2026-05-06 06:35 48.75321 -51.16839 39139 ft 461 kts 61°
2026-05-06 06:35 48.77966 -51.07983 39137 ft 461 kts 61°
2026-05-06 06:36 48.80602 -50.99130 39138 ft 461 kts 61°
2026-05-06 06:36 48.83231 -50.90268 39139 ft 461 kts 62°
2026-05-06 06:37 48.85852 -50.81400 39140 ft 460 kts 62°
2026-05-06 06:37 48.88468 -50.72517 39140 ft 460 kts 62°
2026-05-06 06:38 48.91075 -50.63632 39139 ft 460 kts 62°
2026-05-06 06:38 48.93657 -50.54801 39141 ft 460 kts 62°
2026-05-06 06:39 48.96244 -50.45915 39143 ft 460 kts 62°
2026-05-06 06:39 48.98828 -50.37015 39142 ft 459 kts 62°
2026-05-06 06:40 49.01401 -50.28112 39142 ft 459 kts 62°
2026-05-06 06:40 49.03968 -50.19205 39141 ft 459 kts 62°
2026-05-06 06:41 49.06527 -50.10286 39145 ft 459 kts 62°
2026-05-06 06:41 49.09075 -50.01378 39146 ft 458 kts 62°
2026-05-06 06:42 49.11616 -49.92456 39144 ft 458 kts 62°
2026-05-06 06:42 49.14149 -49.83533 39147 ft 458 kts 62°
2026-05-06 06:43 49.16672 -49.74609 39142 ft 457 kts 62°
2026-05-06 06:43 49.19186 -49.65685 39141 ft 457 kts 62°
2026-05-06 06:44 49.21690 -49.56760 39147 ft 456 kts 63°
2026-05-06 06:44 49.24183 -49.47847 39148 ft 456 kts 63°
2026-05-06 06:45 49.26669 -49.38921 39147 ft 455 kts 63°
2026-05-06 06:45 49.29144 -49.30002 39140 ft 455 kts 63°
2026-05-06 06:46 49.31605 -49.21095 39143 ft 454 kts 63°
2026-05-06 06:46 49.34062 -49.12177 39146 ft 453 kts 63°
2026-05-06 06:47 49.36506 -49.03267 39145 ft 453 kts 63°
2026-05-06 06:47 49.38941 -48.94360 39148 ft 452 kts 63°
2026-05-06 06:48 49.41364 -48.85459 39150 ft 452 kts 63°
2026-05-06 06:48 49.43761 -48.76626 39145 ft 451 kts 64°
2026-05-06 06:49 49.46167 -48.67718 39147 ft 451 kts 64°
2026-05-06 06:49 49.48564 -48.58815 39147 ft 450 kts 64°
2026-05-06 06:50 49.50951 -48.49912 39150 ft 450 kts 64°
2026-05-06 06:50 49.53329 -48.41012 39150 ft 450 kts 64°
2026-05-06 06:51 49.55697 -48.32110 39150 ft 449 kts 64°
2026-05-06 06:51 49.58058 -48.23201 39147 ft 449 kts 64°
2026-05-06 06:52 49.60412 -48.14289 39144 ft 449 kts 64°
2026-05-06 06:52 49.62755 -48.05380 39148 ft 448 kts 64°
2026-05-06 06:53 49.65091 -47.96462 39150 ft 448 kts 64°
2026-05-06 06:53 49.67420 -47.87541 39151 ft 448 kts 64°
2026-05-06 06:54 49.69741 -47.78615 39147 ft 448 kts 65°
2026-05-06 06:54 49.72054 -47.69684 39148 ft 448 kts 65°
2026-05-06 06:55 49.74356 -47.60757 39147 ft 447 kts 65°
2026-05-06 06:55 49.76656 -47.51806 39148 ft 447 kts 65°
2026-05-06 06:56 49.78943 -47.42867 39158 ft 447 kts 65°
2026-05-06 06:56 49.81226 -47.33911 39153 ft 447 kts 65°
2026-05-06 06:57 49.83504 -47.24942 39154 ft 447 kts 65°
2026-05-06 06:57 49.85769 -47.15984 39151 ft 447 kts 65°
2026-05-06 06:58 49.88032 -47.06999 39150 ft 447 kts 65°
2026-05-06 06:58 49.90288 -46.98007 39148 ft 447 kts 65°
2026-05-06 06:59 49.92519 -46.89077 39151 ft 447 kts 65°
2026-05-06 06:59 49.94758 -46.80081 39149 ft 447 kts 65°
2026-05-06 07:00 49.96989 -46.71078 39153 ft 447 kts 66°
2026-05-06 07:00 49.99215 -46.62065 39152 ft 447 kts 66°
2026-05-06 07:01 50.01431 -46.53047 39150 ft 446 kts 66°
2026-05-06 07:01 50.03639 -46.44031 39149 ft 446 kts 66°
2026-05-06 07:02 50.05840 -46.35003 39149 ft 446 kts 66°
2026-05-06 07:02 50.08032 -46.25979 39151 ft 446 kts 66°
2026-05-06 07:03 50.09849 -46.18469 39149 ft 446 kts 66°
2026-05-06 07:03 50.12026 -46.09437 39145 ft 445 kts 66°
2026-05-06 07:04 50.14195 -46.00398 39141 ft 445 kts 66°
2026-05-06 07:04 50.16358 -45.91352 39144 ft 445 kts 66°
2026-05-06 07:05 50.18509 -45.82313 39148 ft 444 kts 66°
2026-05-06 07:05 50.20653 -45.73272 39148 ft 444 kts 67°
2026-05-06 07:06 50.22789 -45.64220 39147 ft 444 kts 67°
2026-05-06 07:06 50.24917 -45.55173 39150 ft 444 kts 67°
2026-05-06 07:07 50.27036 -45.46118 39145 ft 443 kts 67°
2026-05-06 07:07 50.29148 -45.37061 39149 ft 443 kts 67°
2026-05-06 07:08 50.31249 -45.28007 39149 ft 443 kts 67°
2026-05-06 07:08 50.33343 -45.18950 39150 ft 443 kts 67°
2026-05-06 07:09 50.35429 -45.09885 39146 ft 442 kts 68°
2026-05-06 07:09 50.37507 -45.00820 39143 ft 442 kts 68°
2026-05-06 07:10 50.39571 -44.91773 39145 ft 441 kts 68°
2026-05-06 07:10 50.41632 -44.82707 39144 ft 441 kts 68°
2026-05-06 07:11 50.43683 -44.73643 39142 ft 441 kts 68°
2026-05-06 07:11 50.45724 -44.64583 39144 ft 440 kts 68°
2026-05-06 07:12 50.47759 -44.55513 39147 ft 440 kts 68°
2026-05-06 07:12 50.49783 -44.46450 39147 ft 440 kts 68°
2026-05-06 07:13 50.51787 -44.37438 39144 ft 440 kts 68°
2026-05-06 07:13 50.53809 -44.28305 39138 ft 439 kts 68°
2026-05-06 07:14 50.55811 -44.19225 39146 ft 439 kts 68°
2026-05-06 07:14 50.57801 -44.10159 39142 ft 439 kts 68°
2026-05-06 07:15 50.59772 -44.01140 39147 ft 439 kts 68°
2026-05-06 07:15 50.61747 -43.92063 39145 ft 438 kts 68°
2026-05-06 07:16 50.63714 -43.82985 39141 ft 438 kts 69°
2026-05-06 07:16 50.65674 -43.73894 39139 ft 438 kts 69°
2026-05-06 07:17 50.67624 -43.64814 39145 ft 437 kts 69°
2026-05-06 07:17 50.69566 -43.55726 39139 ft 437 kts 69°
2026-05-06 07:18 50.71501 -43.46631 39139 ft 437 kts 69°
2026-05-06 07:18 50.73425 -43.37551 39144 ft 436 kts 69°
2026-05-06 07:19 50.75342 -43.28460 39142 ft 436 kts 69°
2026-05-06 07:19 50.77252 -43.19364 39140 ft 436 kts 69°
2026-05-06 07:20 50.79154 -43.10263 39142 ft 436 kts 69°
2026-05-06 07:20 50.81048 -43.01162 39147 ft 436 kts 69°
2026-05-06 07:21 50.82936 -42.92044 39144 ft 436 kts 69°
2026-05-06 07:21 50.84815 -42.82928 39147 ft 436 kts 69°
2026-05-06 07:22 50.86688 -42.73804 39144 ft 436 kts 70°
2026-05-06 07:22 50.88542 -42.64725 39143 ft 436 kts 70°
2026-05-06 07:23 50.90401 -42.55585 39144 ft 436 kts 70°
2026-05-06 07:23 50.92255 -42.46419 39145 ft 437 kts 70°
2026-05-06 07:24 50.94104 -42.37246 39147 ft 437 kts 70°
2026-05-06 07:24 50.95943 -42.28066 39147 ft 437 kts 70°
2026-05-06 07:25 50.97779 -42.18871 39145 ft 437 kts 70°
2026-05-06 07:25 50.99607 -42.09664 39145 ft 437 kts 70°
2026-05-06 07:26 51.01428 -42.00455 39151 ft 437 kts 70°
2026-05-06 07:26 51.03242 -41.91232 39150 ft 437 kts 70°
2026-05-06 07:27 51.05050 -41.81998 39147 ft 437 kts 70°
2026-05-06 07:27 51.06848 -41.72772 39149 ft 437 kts 70°
2026-05-06 07:28 51.08628 -41.63589 39149 ft 437 kts 70°
2026-05-06 07:28 51.11300 -41.49730 39151 ft 437 kts 70°
2026-05-06 07:29 51.13072 -41.40479 39153 ft 437 kts 70°
2026-05-06 07:29 51.14836 -41.31226 39152 ft 437 kts 70°
2026-05-06 07:30 51.16590 -41.21980 39152 ft 436 kts 71°
2026-05-06 07:30 51.18339 -41.12716 39154 ft 436 kts 71°
2026-05-06 07:31 51.20079 -41.03454 39153 ft 436 kts 71°
2026-05-06 07:31 51.21810 -40.94189 39153 ft 436 kts 71°
2026-05-06 07:32 51.23534 -40.84922 39154 ft 436 kts 71°
2026-05-06 07:32 51.25250 -40.75647 39150 ft 436 kts 71°
2026-05-06 07:33 51.26958 -40.66371 39152 ft 436 kts 71°
2026-05-06 07:33 51.28659 -40.57085 39149 ft 436 kts 71°
2026-05-06 07:34 51.30352 -40.47799 39152 ft 435 kts 72°
2026-05-06 07:34 51.32039 -40.38494 39147 ft 435 kts 72°
2026-05-06 07:35 51.33716 -40.29200 39146 ft 435 kts 72°
2026-05-06 07:35 51.35388 -40.19883 39148 ft 435 kts 72°
2026-05-06 07:36 51.37051 -40.10573 39148 ft 435 kts 72°
2026-05-06 07:36 51.38707 -40.01250 39143 ft 435 kts 72°
2026-05-06 07:37 51.40356 -39.91922 39147 ft 435 kts 72°
2026-05-06 07:37 51.41997 -39.82590 39144 ft 435 kts 72°
2026-05-06 07:38 51.43628 -39.73257 39142 ft 435 kts 72°
2026-05-06 07:38 51.45242 -39.63983 39147 ft 435 kts 73°
2026-05-06 07:39 51.46859 -39.54636 39143 ft 435 kts 73°
2026-05-06 07:39 51.48469 -39.45292 39146 ft 435 kts 73°
2026-05-06 07:40 51.50070 -39.35932 39144 ft 435 kts 73°
2026-05-06 07:40 51.51664 -39.26580 39144 ft 434 kts 73°
2026-05-06 07:41 51.53250 -39.17215 39143 ft 434 kts 73°
2026-05-06 07:41 51.54828 -39.07852 39139 ft 434 kts 73°
2026-05-06 07:42 51.56395 -38.98496 39141 ft 434 kts 73°
2026-05-06 07:42 51.57957 -38.89127 39141 ft 434 kts 73°
2026-05-06 07:43 51.59510 -38.79754 39141 ft 434 kts 73°
2026-05-06 07:43 51.61055 -38.70386 39139 ft 433 kts 73°
2026-05-06 07:44 51.62592 -38.61005 39139 ft 433 kts 73°
2026-05-06 07:44 51.64112 -38.51690 39131 ft 433 kts 74°
2026-05-06 07:45 51.65642 -38.42244 39135 ft 433 kts 74°
2026-05-06 07:45 51.67146 -38.32916 39141 ft 433 kts 74°
2026-05-06 07:46 51.68654 -38.23514 39142 ft 433 kts 74°
2026-05-06 07:46 51.70152 -38.14115 39140 ft 433 kts 74°
2026-05-06 07:47 51.71642 -38.04714 39135 ft 433 kts 74°
2026-05-06 07:47 51.73126 -37.95300 39139 ft 433 kts 74°
2026-05-06 07:48 51.74601 -37.85891 39142 ft 433 kts 74°
2026-05-06 07:48 51.76068 -37.76471 39141 ft 433 kts 75°
2026-05-06 07:49 51.77527 -37.67049 39141 ft 433 kts 75°
2026-05-06 07:49 51.78978 -37.57631 39141 ft 432 kts 75°
2026-05-06 07:50 51.80422 -37.48200 39142 ft 432 kts 75°
2026-05-06 07:50 51.81860 -37.38754 39145 ft 432 kts 75°
2026-05-06 07:51 51.83287 -37.29323 39136 ft 432 kts 75°
2026-05-06 07:51 51.84707 -37.19882 39142 ft 432 kts 75°
2026-05-06 07:52 51.86121 -37.10422 39141 ft 432 kts 75°
2026-05-06 07:52 51.87289 -37.02566 39137 ft 432 kts 75°
2026-05-06 07:53 51.88686 -36.93123 39137 ft 432 kts 75°
2026-05-06 07:53 51.90077 -36.83661 39145 ft 432 kts 75°
2026-05-06 07:54 51.91461 -36.74186 39136 ft 432 kts 76°
2026-05-06 07:54 51.92836 -36.64719 39133 ft 432 kts 76°
2026-05-06 07:55 51.94204 -36.55240 39138 ft 432 kts 76°
2026-05-06 07:55 51.95564 -36.45753 39142 ft 432 kts 76°
2026-05-06 07:56 51.96915 -36.36275 39141 ft 432 kts 76°
2026-05-06 07:56 51.98261 -36.26774 39138 ft 432 kts 76°
2026-05-06 07:57 51.99598 -36.17272 39141 ft 432 kts 76°
2026-05-06 07:57 52.00927 -36.07775 39140 ft 432 kts 76°
2026-05-06 07:58 52.02249 -35.98258 39134 ft 432 kts 76°
2026-05-06 07:58 52.03563 -35.88745 39138 ft 432 kts 76°
2026-05-06 07:59 52.04870 -35.79223 39135 ft 432 kts 77°
2026-05-06 07:59 52.06169 -35.69694 39136 ft 432 kts 77°
2026-05-06 08:00 52.07460 -35.60162 39144 ft 432 kts 77°
2026-05-06 08:00 52.08741 -35.50636 39149 ft 432 kts 77°
2026-05-06 08:01 52.10018 -35.41083 39147 ft 432 kts 77°
2026-05-06 08:01 52.11286 -35.31541 39150 ft 432 kts 77°
2026-05-06 08:02 52.12545 -35.21990 39137 ft 432 kts 77°
2026-05-06 08:02 52.13788 -35.12504 39150 ft 432 kts 77°
2026-05-06 08:03 52.15032 -35.02945 39138 ft 431 kts 77°
2026-05-06 08:03 52.16276 -34.93324 39134 ft 431 kts 77°
2026-05-06 08:04 52.17495 -34.83828 39140 ft 431 kts 77°
2026-05-06 08:04 52.18716 -34.74254 39143 ft 431 kts 78°
2026-05-06 08:05 52.19927 -34.64688 39138 ft 431 kts 78°
2026-05-06 08:05 52.21131 -34.55113 39141 ft 431 kts 78°
2026-05-06 08:06 52.22327 -34.45536 39140 ft 431 kts 78°
2026-05-06 08:06 52.23515 -34.35955 39130 ft 431 kts 78°
2026-05-06 08:07 52.24694 -34.26381 39143 ft 431 kts 78°
2026-05-06 08:07 52.25866 -34.16789 39137 ft 431 kts 78°
2026-05-06 08:08 52.27030 -34.07203 39136 ft 431 kts 78°
2026-05-06 08:08 52.28185 -33.97611 39131 ft 430 kts 78°
2026-05-06 08:09 52.29334 -33.88014 39131 ft 430 kts 78°
2026-05-06 08:09 52.30472 -33.78424 39126 ft 430 kts 78°
2026-05-06 08:10 52.31606 -33.68813 39122 ft 430 kts 78°
2026-05-06 08:10 52.32730 -33.59202 39124 ft 430 kts 79°
2026-05-06 08:11 52.33845 -33.49599 39129 ft 430 kts 79°
2026-05-06 08:11 52.34956 -33.39968 39126 ft 430 kts 79°
2026-05-06 08:12 52.36056 -33.30346 39114 ft 431 kts 79°
2026-05-06 08:12 52.37142 -33.20787 39122 ft 431 kts 79°
2026-05-06 08:13 52.38228 -33.11142 39124 ft 431 kts 79°
2026-05-06 08:13 52.39307 -33.01492 39121 ft 431 kts 79°
2026-05-06 08:14 52.40378 -32.91843 39115 ft 431 kts 79°
2026-05-06 08:14 52.41441 -32.82183 39110 ft 431 kts 79°
2026-05-06 08:15 52.42497 -32.72506 39116 ft 431 kts 79°
2026-05-06 08:15 52.43547 -32.62829 39112 ft 432 kts 79°
2026-05-06 08:16 52.44586 -32.53137 39113 ft 432 kts 79°
2026-05-06 08:16 52.45622 -32.43436 39110 ft 432 kts 80°
2026-05-06 08:17 52.46647 -32.33730 39110 ft 432 kts 80°
2026-05-06 08:17 52.47666 -32.24009 39106 ft 433 kts 80°
2026-05-06 08:18 52.48679 -32.14278 39105 ft 433 kts 80°
2026-05-06 08:18 52.49682 -32.04546 39102 ft 433 kts 80°
2026-05-06 08:19 52.50680 -31.94788 39099 ft 433 kts 80°
2026-05-06 08:19 52.51670 -31.85030 39096 ft 434 kts 80°
2026-05-06 08:20 52.52652 -31.75256 39092 ft 434 kts 81°
2026-05-06 08:20 52.53627 -31.65468 39086 ft 434 kts 81°
2026-05-06 08:21 52.54594 -31.55673 39078 ft 434 kts 81°
2026-05-06 08:21 52.55555 -31.45867 39078 ft 435 kts 81°
2026-05-06 08:22 52.56501 -31.36116 39068 ft 435 kts 81°
2026-05-06 08:22 52.57445 -31.26303 39074 ft 435 kts 81°
2026-05-06 08:23 52.58382 -31.16473 39073 ft 435 kts 81°
2026-05-06 08:23 52.59310 -31.06640 39066 ft 435 kts 81°
2026-05-06 08:24 52.60230 -30.96807 39061 ft 435 kts 81°
2026-05-06 08:24 52.61142 -30.86974 39063 ft 435 kts 82°
2026-05-06 08:25 52.62043 -30.77152 39059 ft 434 kts 82°
2026-05-06 08:25 52.62938 -30.67323 39055 ft 434 kts 82°
2026-05-06 08:26 52.63823 -30.57498 39057 ft 434 kts 82°
2026-05-06 08:26 52.64701 -30.47665 39057 ft 434 kts 82°
2026-05-06 08:27 52.65569 -30.37841 39043 ft 434 kts 82°
2026-05-06 08:27 52.66429 -30.28008 39054 ft 434 kts 82°
2026-05-06 08:28 52.67282 -30.18175 39058 ft 434 kts 82°
2026-05-06 08:28 52.68126 -30.08329 39060 ft 434 kts 82°
2026-05-06 08:29 52.68963 -29.98481 39063 ft 434 kts 82°
2026-05-06 08:29 52.69790 -29.88640 39058 ft 434 kts 82°
2026-05-06 08:30 52.70611 -29.78780 39058 ft 434 kts 83°
2026-05-06 08:30 52.71423 -29.68928 39068 ft 434 kts 83°
2026-05-06 08:31 52.72225 -29.59068 39067 ft 434 kts 83°
2026-05-06 08:31 52.73022 -29.49199 39069 ft 434 kts 83°
2026-05-06 08:32 52.73809 -29.39325 39074 ft 434 kts 83°
2026-05-06 08:32 52.74585 -29.29498 39069 ft 434 kts 83°
2026-05-06 08:33 52.75361 -29.19558 39073 ft 434 kts 83°
2026-05-06 08:33 52.76124 -29.09675 39074 ft 434 kts 83°
2026-05-06 08:34 52.77248 -28.94900 39078 ft 434 kts 83°
2026-05-06 08:35 52.77991 -28.85010 39085 ft 434 kts 83°
2026-05-06 08:35 52.78725 -28.75113 39088 ft 434 kts 83°
2026-05-06 08:36 52.79451 -28.65219 39086 ft 434 kts 84°
2026-05-06 08:36 52.80169 -28.55316 39075 ft 434 kts 84°
2026-05-06 08:37 52.80879 -28.45405 39092 ft 434 kts 84°
2026-05-06 08:37 52.81580 -28.35498 39091 ft 434 kts 84°
2026-05-06 08:38 52.82272 -28.25604 39094 ft 434 kts 84°
2026-05-06 08:38 52.82957 -28.15685 39103 ft 434 kts 84°
2026-05-06 08:39 52.83633 -28.05769 39100 ft 434 kts 84°
2026-05-06 08:39 52.84301 -27.95860 39103 ft 434 kts 84°
2026-05-06 08:40 52.84850 -27.87603 39101 ft 434 kts 84°
2026-05-06 08:40 52.85504 -27.77682 39111 ft 434 kts 84°
2026-05-06 08:41 52.86148 -27.67746 39109 ft 434 kts 84°
2026-05-06 08:41 52.86785 -27.57821 39111 ft 434 kts 84°
2026-05-06 08:42 52.87413 -27.47882 39112 ft 434 kts 84°
2026-05-06 08:42 52.88033 -27.37941 39112 ft 434 kts 85°
2026-05-06 08:43 52.88647 -27.27978 39110 ft 436 kts 85°
2026-05-06 08:43 52.89251 -27.18003 39114 ft 436 kts 85°
2026-05-06 08:44 52.89849 -27.08021 39117 ft 435 kts 85°
2026-05-06 08:44 52.90438 -26.98035 39113 ft 436 kts 85°
2026-05-06 08:45 52.91018 -26.88045 39121 ft 436 kts 85°
2026-05-06 08:45 52.91587 -26.78115 39117 ft 436 kts 85°
2026-05-06 08:46 52.92150 -26.68125 39122 ft 436 kts 85°
2026-05-06 08:46 52.92706 -26.58114 39121 ft 436 kts 85°
2026-05-06 08:47 52.93258 -26.48039 39124 ft 436 kts 85°
2026-05-06 08:47 52.93793 -26.38096 39127 ft 436 kts 85°
2026-05-06 08:48 52.94324 -26.28081 39126 ft 436 kts 85°
2026-05-06 08:48 52.94847 -26.18052 39130 ft 436 kts 86°
2026-05-06 08:49 52.95361 -26.08033 39130 ft 437 kts 86°
2026-05-06 08:49 52.95867 -25.97992 39130 ft 437 kts 86°
2026-05-06 08:50 52.96365 -25.87952 39132 ft 437 kts 86°
2026-05-06 08:50 52.96853 -25.77919 39131 ft 437 kts 86°
2026-05-06 08:51 52.97335 -25.67869 39133 ft 437 kts 86°
2026-05-06 08:51 52.97807 -25.57813 39132 ft 437 kts 86°
2026-05-06 08:52 52.98272 -25.47757 39135 ft 437 kts 86°
2026-05-06 08:52 52.98727 -25.37689 39135 ft 437 kts 86°
2026-05-06 08:53 52.99176 -25.27622 39131 ft 438 kts 86°
2026-05-06 08:53 52.99615 -25.17545 39134 ft 438 kts 86°
2026-05-06 08:54 53.00043 -25.07525 39135 ft 438 kts 86°
2026-05-06 08:54 53.00465 -24.97450 39133 ft 438 kts 86°
2026-05-06 08:55 53.00879 -24.87359 39130 ft 438 kts 86°
2026-05-06 08:55 53.01285 -24.77259 39128 ft 438 kts 86°
2026-05-06 08:56 53.01682 -24.67161 39132 ft 438 kts 86°
2026-05-06 08:56 53.02072 -24.57052 39130 ft 439 kts 86°
2026-05-06 08:57 53.02453 -24.46926 39131 ft 439 kts 86°
2026-05-06 08:57 53.02825 -24.36811 39131 ft 439 kts 86°
2026-05-06 08:58 53.03188 -24.26701 39130 ft 439 kts 86°
2026-05-06 08:58 53.03543 -24.16561 39130 ft 439 kts 86°
2026-05-06 08:59 53.03890 -24.06418 39126 ft 440 kts 86°
2026-05-06 08:59 53.04229 -23.96267 39129 ft 440 kts 86°
2026-05-06 09:00 53.04559 -23.86107 39128 ft 440 kts 86°
2026-05-06 09:00 53.04881 -23.75936 39128 ft 441 kts 87°
2026-05-06 09:01 53.05192 -23.65827 39124 ft 441 kts 87°
2026-05-06 09:01 53.05496 -23.55646 39124 ft 442 kts 87°
2026-05-06 09:02 53.05793 -23.45444 39124 ft 442 kts 87°
2026-05-06 09:02 53.06081 -23.35231 39124 ft 442 kts 87°
2026-05-06 09:03 53.06361 -23.25013 39119 ft 443 kts 87°
2026-05-06 09:03 53.06632 -23.14776 39122 ft 443 kts 87°
2026-05-06 09:04 53.06894 -23.04533 39117 ft 444 kts 87°
2026-05-06 09:04 53.07148 -22.94286 39116 ft 444 kts 87°
2026-05-06 09:05 53.07393 -22.84024 39118 ft 444 kts 87°
2026-05-06 09:05 53.07630 -22.73753 39120 ft 445 kts 87°
2026-05-06 09:06 53.07858 -22.63478 39116 ft 445 kts 87°
2026-05-06 09:06 53.08077 -22.53195 39113 ft 445 kts 87°
2026-05-06 09:07 53.08287 -22.42897 39110 ft 446 kts 87°
2026-05-06 09:07 53.08489 -22.32586 39108 ft 446 kts 87°
2026-05-06 09:08 53.08682 -22.22284 39109 ft 446 kts 87°
2026-05-06 09:08 53.08866 -22.11957 39107 ft 446 kts 87°
2026-05-06 09:09 53.09041 -22.01695 39110 ft 447 kts 87°
2026-05-06 09:09 53.09207 -21.91362 39112 ft 447 kts 87°
2026-05-06 09:10 53.09365 -21.81016 39109 ft 447 kts 87°
2026-05-06 09:10 53.09514 -21.70663 39104 ft 448 kts 87°
2026-05-06 09:11 53.09654 -21.60313 39105 ft 448 kts 88°
2026-05-06 09:11 53.09785 -21.49946 39106 ft 448 kts 88°
2026-05-06 09:12 53.09907 -21.39565 39104 ft 449 kts 88°
2026-05-06 09:12 53.10020 -21.29193 39104 ft 449 kts 88°
2026-05-06 09:13 53.10125 -21.18797 39106 ft 449 kts 88°
2026-05-06 09:13 53.10220 -21.08411 39101 ft 449 kts 88°
2026-05-06 09:14 53.10306 -20.98001 39100 ft 450 kts 88°
2026-05-06 09:14 53.10384 -20.87591 39100 ft 450 kts 88°
2026-05-06 09:15 53.10451 -20.77181 39101 ft 450 kts 88°
2026-05-06 09:15 53.10511 -20.66761 39101 ft 450 kts 88°
2026-05-06 09:16 53.10560 -20.56335 39089 ft 451 kts 88°
2026-05-06 09:16 53.10602 -20.45917 39098 ft 451 kts 88°
2026-05-06 09:17 53.10633 -20.35477 39092 ft 451 kts 88°
2026-05-06 09:17 53.10656 -20.25038 39094 ft 451 kts 88°
2026-05-06 09:18 53.10670 -20.14601 39093 ft 451 kts 88°
2026-05-06 09:18 53.10674 -20.04154 39090 ft 451 kts 88°
2026-05-06 09:19 53.10670 -19.93705 39095 ft 451 kts 88°
2026-05-06 09:19 53.10656 -19.83263 39091 ft 452 kts 88°
2026-05-06 09:20 53.10633 -19.72812 39086 ft 452 kts 88°
2026-05-06 09:20 53.10601 -19.62413 39094 ft 452 kts 88°
2026-05-06 09:21 53.10559 -19.51957 39089 ft 452 kts 88°
2026-05-06 09:21 53.10510 -19.41506 39089 ft 452 kts 88°
2026-05-06 09:22 53.10450 -19.31056 39092 ft 452 kts 89°
2026-05-06 09:22 53.10381 -19.20595 39090 ft 452 kts 89°
2026-05-06 09:23 53.10303 -19.10080 39088 ft 452 kts 89°
2026-05-06 09:23 53.10216 -18.99700 39089 ft 451 kts 89°
2026-05-06 09:24 53.10120 -18.89260 39089 ft 451 kts 89°
2026-05-06 09:24 53.10015 -18.78813 39090 ft 451 kts 89°
2026-05-06 09:25 53.09900 -18.68387 39088 ft 451 kts 89°
2026-05-06 09:25 53.09777 -18.57952 39088 ft 451 kts 89°
2026-05-06 09:26 53.09645 -18.47523 39087 ft 451 kts 89°
2026-05-06 09:26 53.09503 -18.37098 39084 ft 451 kts 89°
2026-05-06 09:27 53.09352 -18.26678 39087 ft 450 kts 89°
2026-05-06 09:27 53.09193 -18.16261 39084 ft 450 kts 89°
2026-05-06 09:28 53.09024 -18.05854 39086 ft 450 kts 89°
2026-05-06 09:28 53.08847 -17.95444 39085 ft 450 kts 89°
2026-05-06 09:29 53.08660 -17.85050 39084 ft 450 kts 89°
2026-05-06 09:29 53.08498 -17.76398 39085 ft 450 kts 89°
2026-05-06 09:30 53.08295 -17.65998 39082 ft 450 kts 89°
2026-05-06 09:30 53.08082 -17.55598 39082 ft 450 kts 89°
2026-05-06 09:31 53.07861 -17.45207 39087 ft 450 kts 89°
2026-05-06 09:31 53.07631 -17.34815 39088 ft 450 kts 90°
2026-05-06 09:32 53.07391 -17.24420 39086 ft 449 kts 90°
2026-05-06 09:32 53.07143 -17.14037 39085 ft 450 kts 90°
2026-05-06 09:33 53.06886 -17.03655 39082 ft 450 kts 90°
2026-05-06 09:33 53.06619 -16.93265 39082 ft 449 kts 90°
2026-05-06 09:34 53.06344 -16.82890 39078 ft 449 kts 90°
2026-05-06 09:34 53.06060 -16.72516 39085 ft 449 kts 90°
2026-05-06 09:35 53.05766 -16.62134 39088 ft 449 kts 90°
2026-05-06 09:35 53.05466 -16.51834 39081 ft 449 kts 90°
2026-05-06 09:36 53.05154 -16.41470 39082 ft 449 kts 90°
2026-05-06 09:36 53.04835 -16.31117 39082 ft 449 kts 90°
2026-05-06 09:37 53.04506 -16.20771 39088 ft 448 kts 90°
2026-05-06 09:37 53.04168 -16.10424 39085 ft 448 kts 90°
2026-05-06 09:38 53.03822 -16.00090 39084 ft 448 kts 90°
2026-05-06 09:38 53.03466 -15.89755 39089 ft 448 kts 91°
2026-05-06 09:39 53.03103 -15.79425 39085 ft 448 kts 91°
2026-05-06 09:39 53.02729 -15.69100 39090 ft 448 kts 91°
2026-05-06 09:40 53.02348 -15.58789 39084 ft 447 kts 91°
2026-05-06 09:40 53.01759 -15.43329 39083 ft 447 kts 91°
2026-05-06 09:41 53.01355 -15.33029 39089 ft 447 kts 91°
2026-05-06 09:41 53.00943 -15.22736 39085 ft 447 kts 91°
2026-05-06 09:42 53.00522 -15.12444 39086 ft 447 kts 91°
2026-05-06 09:42 53.00092 -15.02167 39084 ft 446 kts 91°
2026-05-06 09:43 53.00050 -14.91906 39084 ft 444 kts 86°
2026-05-06 09:43 53.00054 -14.81641 39084 ft 444 kts 87°
2026-05-06 09:44 53.00093 -14.71399 39084 ft 444 kts 87°
2026-05-06 09:44 53.00098 -14.61206 39084 ft 444 kts 87°
2026-05-06 09:45 53.00108 -14.50957 39079 ft 444 kts 87°
2026-05-06 09:45 53.00101 -14.40715 39085 ft 444 kts 88°
2026-05-06 09:46 53.00090 -14.30465 39084 ft 444 kts 87°
2026-05-06 09:46 53.00069 -14.20231 39084 ft 444 kts 88°
2026-05-06 09:47 53.00039 -14.09992 39083 ft 443 kts 88°
2026-05-06 09:47 52.99570 -13.99777 39079 ft 447 kts 99°
2026-05-06 09:48 52.97617 -13.89971 39079 ft 449 kts 110°
2026-05-06 09:48 52.95333 -13.80342 39086 ft 449 kts 109°
2026-05-06 09:49 52.93027 -13.70728 39083 ft 449 kts 110°
2026-05-06 09:49 52.90720 -13.61116 39086 ft 448 kts 110°
2026-05-06 09:50 52.88406 -13.51534 39082 ft 448 kts 110°
2026-05-06 09:50 52.86085 -13.41961 39082 ft 448 kts 110°
2026-05-06 09:51 52.83775 -13.32469 39084 ft 448 kts 110°
2026-05-06 09:51 52.81424 -13.22858 39084 ft 448 kts 110°
2026-05-06 09:52 52.79098 -13.13386 39082 ft 448 kts 110°
2026-05-06 09:52 52.76749 -13.03869 39081 ft 447 kts 110°